Miscellaneous Local Product
Issued by NWS North Platte, NE

Home | Current Version | Previous Version | Text Only | Print | Product List | Glossary On
Versions: 1 2 3 4 5 6 7 8 9 10 11 12 13 14 15 16 17 18 19 20 21 22 23 24 25 26 27 28 29 30 31 32 33 34 35 36 37 38 39 40 41 42 43 44 45 46 47 48 49 50
000
AXUS43 KLBF 030010
MISLBF


WESTERN AND NORTH CENTRAL NEBRASKA HOURLY WEATHER ROUNDUP
NATIONAL WEATHER SERVICE NORTH PLATTE NE
700 PM CDT WED SEP 02 2015

NOTE: "FAIR" INDICATES FEW OR NO CLOUDS BELOW 12,000 FEET WITH NO
SIGNIFICANT WEATHER AND/OR OBSTRUCTIONS TO VISIBILITY.

NOTE: STATIONS NOT REPORTING VARIABLES SUCH AS SKY/WEATHER OR
PRESSURE ARE PROVIDED BY THE NEBRASKA DEPARTMENT OF
ROADS...RAWS...AND APRS NETWORKS...AND ARE NOT UNDER
NATIONAL WEATHER SERVICE QUALITY CONTROL.

...OBSERVATIONS IN AND NEAR THE EASTERN PANHANDLE OF NEBRASKA...

CITY           SKY/WX    TMP DP  RH WIND       PRES   REMARKS
PINE RIDGE     SUNNY     91  49  23 S8        29.81F
CHADRON        SUNNY     95  45  17 S7        29.79F HX  91
ALLIANCE       SUNNY     93  41  16 S8        29.87F
SIDNEY         SUNNY     91  42  18 SE7       29.93S
BIG SPRINGS      N/A     91  60  35 S3          N/A  HX  90
$$

...OBSERVATIONS IN NORTH CENTRAL NEBRASKA...

CITY           SKY/WX    TMP DP  RH WIND       PRES   REMARKS
VALENTINE      MOSUNNY   96  46  18 S7        29.78F HX  92
THEDFORD       MOSUNNY   94  57  29 S16G22    29.84R HX  92
AINSWORTH      MOSUNNY   88  58  36 S6        29.80S
O`NEILL        SUNNY     89  69  50 SE12G17   29.81S HX  93
ORD            SUNNY     91  63  39 S10       29.81S HX  92
BROKEN BOW     SUNNY     91  62  37 S9        29.84S HX  91
SARGENT          N/A     92  63  38 CALM        N/A  HX  93
CHAMBERS         N/A     89  67  47 S3          N/A  HX  91
EWING            N/A     82  71  68 SE3         N/A
$$

...OBSERVATIONS IN SOUTHWEST NEBRASKA AND FAR NORTHEAST COLORADO...

CITY           SKY/WX    TMP DP  RH WIND       PRES   REMARKS
WRAY           CLOUDY    95  40  14 SE7       29.88S HX  90
HOLYOKE        FAIR      95  46  18 CALM      29.89S HX  91
IMPERIAL       MOSUNNY   96  51  21 SE7       29.85S HX  93
OGALLALA       SUNNY     93  53  25 S8        29.86S HX  91
NORTH PLATTE   SUNNY     89  57  33 SE8       29.83S
MCCOOK         SUNNY     96  54  24 E8        29.81F HX  94
LEXINGTON      SUNNY     90  63  40 E6        29.83S HX  91
PAXTON           N/A     89  66  46 SE3         N/A  HX  91
CALLAWAY         N/A     84  71  65 SE7         N/A
$$

...OBSERVATIONS IN CENTRAL LINCOLN COUNTY AREA...

CITY           SKY/WX    TMP DP  RH WIND       PRES   REMARKS
N.P. AIRPORT   SUNNY     89  57  33 SE8       29.83S
N.P. DOWNTOWN    N/A     95  57  27 S3          N/A  HX  93
N.P. SOUTHEAST   N/A     92  57  30 SE5         N/A  HX  90
N.P. HILLCREST   N/A     91  59  34 SE8         N/A  HX  90
$$

...SOME OBSERVATIONS FROM AROUND THE REGION...

CITY           SKY/WX    TMP DP  RH WIND       PRES   REMARKS
DENVER         PTSUNNY   88  34  14 SE7       30.01S
LARAMIE        PTSUNNY   77  40  26 SW23G30   30.15R
CHEYENNE       MOSUNNY   83  35  18 SW9       30.06R
SCOTTSBLUFF    SUNNY     92  44  19 SE7       29.88S
RAPID CITY     SUNNY     93  49  22 SW5       29.76S HX  90
PIERRE         SUNNY     91  70  49 E7        29.69S HX  96
WINNER         FAIR      94  57  28 SE9       29.73F HX  92
SIOUX FALLS    MOSUNNY   83  73  72 S15       29.80F
OMAHA          MOCLDY    88  71  57 S15       29.83S HX  94
GRAND ISLAND   MOSUNNY   91  65  41 S6        29.83S HX  93
KANSAS CITY    PTCLDY    84  68  58 S13       29.92S
WICHITA        SUNNY     90  64  42 S15G30    29.88S HX  91
HAYS           SUNNY     99  55  23 S24G31    29.79S HX  97
LIBERAL        PTSUNNY   91  54  27 S18G26    29.90S
GOODLAND       SUNNY     93  48  21 S5        29.87S
$$



USA.gov is the U.S. government's official web portal to all federal, state and local government web resources and services.